Location: Kleinfischlingen
(49.2624°N, 8.1875°E)
Time: 11:01:59
(UTC+00:00)

Daily predictions for brighter satellites

Satellite Brightness Start Highest point End
(mag) Time Altitude Azimuth Time Altitude Azimuth Time Altitude Azimuth
Cosmos 2360 Rocket 2.2 18:38:40 10° SSW 18:44:12 61° ESE 18:49:46 10° NE
COSMO-SKYMED 1 3.9 18:42:44 10° N 18:46:39 44° WNW 18:50:32 10° SW
Okean-O 4.5 18:44:20 10° E 18:46:50 15° ENE 18:49:21 10° NNE
BlueWalker 3 3.9 18:45:23 10° W 18:48:07 21° SW 18:50:51 10° S
Cosmos 2184 Rocket 4.1 18:45:50 10° S 18:52:06 62° E 18:58:22 10° NNE
Cosmos 2322 Rocket 2.2 18:46:31 10° SSW 18:52:06 76° ESE 18:57:43 10° NNE
Cosmos 1666 Rocket 3.5 18:50:11 10° S 18:54:27 84° E 18:58:47 10° N
Cosmos 1633 Rocket 3.0 18:51:10 10° S 18:55:31 72° E 18:59:54 10° NNE
Cosmos 1340 Rocket 2.6 18:52:32 10° S 18:56:11 89° E 18:59:52 10° NNE
ADEOS 4.2 18:53:01 10° SE 18:57:46 37° ENE 19:02:32 10° N
Feng Yun 1-1 Rocket 4.5 18:53:41 10° SE 18:59:07 53° ENE 19:04:27 10° N
BREEZE-M DEB (TANK) 2.8 18:57:21 10° SW 18:59:23 30° SSE 19:02:02 10° E
SL-16 R/B 2.9 18:54:29 10° SW 19:00:05 60° WNW 19:05:44 10° NNE
Terra 2.5 18:56:23 10° SE 19:00:39 36° ENE 19:04:57 10° N
ATLAS 5 CENTAUR R/B 3.6 18:59:26 10° WNW 19:01:36 18° NNW 19:03:56 10° NNE
CSL-04 Debris 4.1 18:57:53 10° SSE 19:03:13 77° ENE 19:08:37 10° NNW
Meteor 1-22 Rocket 4.4 18:58:58 10° SSW 19:04:35 83° WNW 19:10:31 10° N
Cosmos 1898 Rocket 3.5 19:00:08 10° S 19:05:17 62° ESE 19:10:26 10° NNE
CZ-4 R/B 1.2 19:01:42 10° SSE 19:05:28 65° ENE 19:09:12 10° N
Resurs 01 Rocket 3.7 19:03:47 10° SSW 19:07:36 29° W 19:11:27 10° NNW
SL-08 R/B 4.3 19:05:22 10° NE 19:09:29 27° E 19:13:36 10° SSE
Okean O Rocket 2.9 19:06:43 12° ESE 19:09:50 24° ENE 19:13:19 10° N
Meteor 1-24 Rocket 4.0 19:08:29 10° NNW 19:13:53 71° W 19:19:27 10° S
Cosmos 2333 4.1 19:09:13 10° SSW 19:14:48 83° ESE 19:20:26 10° NNE
Cosmos 372 Rocket 4.1 19:10:55 10° SSW 19:16:08 84° WNW 19:21:25 10° NNE
Cosmos 1680 Rocket 3.7 19:12:50 10° NNW 19:17:58 53° ENE 19:22:22 14° SE
Cosmos 2219 Rocket 2.1 19:15:06 10° SSW 19:20:39 72° ESE 19:26:14 10° NNE
SPOT 5 3.2 19:16:08 10° S 19:20:53 64° WSW 19:25:25 10° NNW
CZ-4B R/B 4.0 19:19:39 10° S 19:23:12 64° WSW 19:26:54 10° NNW
Cosmos 2074 Rocket 4.2 19:17:36 10° SSW 19:23:49 79° W 19:30:08 10° N
Meteor 1-31 Rocket 3.0 19:22:23 10° S 19:25:51 61° WSW 19:29:22 10° NNW
Cosmos 1937 Rocket 3.5 19:21:34 10° SSW 19:26:49 70° ESE 19:32:06 10° NNE
Cosmos 1339 Rocket 4.5 19:23:39 10° N 19:30:01 85° E 19:36:14 10° S
SL-24 R/B - RUBIN 2 3.6 19:27:45 10° NW 19:32:09 69° NE 19:35:18 20° SE
Cosmos 923 Rocket 4.0 19:28:38 10° NNW 19:33:59 89° WSW 19:38:51 12° SSE
USA 186 2.8 19:34:28 17° NE 19:34:28 17° NE 19:35:36 10° NNE
USA 234 3.4 19:27:55 10° NE 19:34:29 82° NNW 19:41:03 10° WSW
Cosmos 2112 Rocket 4.1 19:30:22 10° NNW 19:35:33 61° ENE 19:39:16 19° SE
SL-8 Rocket 4.3 19:30:17 10° SSE 19:36:07 44° E 19:42:01 10° NNE
NOSS 2-3 (E) 4.2 19:32:39 10° NW 19:37:34 78° NE 19:42:20 19° SE
COSMOS 2428 3.3 19:32:55 10° S 19:38:03 36° ESE 19:43:14 10° NE
PAYLOAD B 4.3 19:34:40 10° SSE 19:40:10 83° WSW 19:45:43 10° NNW
Cosmos 1953 4.0 19:37:04 10° SW 19:40:18 31° WNW 19:43:34 10° N
CZ-4B R/B 3.2 19:35:09 10° SSE 19:40:40 83° ENE 19:46:20 10° NNW
NOSS 2-3 (C) 4.3 19:36:13 10° NW 19:41:01 66° NE 19:45:27 21° SE
MetOp-B 4.1 19:35:43 10° SSE 19:41:05 84° ENE 19:46:29 10° NNW
CZ-4B DEB 4.4 19:35:54 10° S 19:41:20 72° WSW 19:46:50 10° NNW
Cosmos 2278 Rocket 2.9 19:39:10 10° NNW 19:44:33 41° NE 19:47:49 22° ESE
SKYMED 3 4.2 19:42:00 10° NNE 19:45:51 62° ESE 19:49:41 10° S
Cosmos 2366 rocket 4.2 19:40:14 10° SSE 19:46:05 47° E 19:51:56 10° NNE
Ariane Rocket 4.2 19:46:48 19° E 19:48:53 26° ENE 19:52:58 10° N
Cosmos 2327 Rocket 4.4 19:43:17 10° S 19:49:23 72° E 19:55:39 10° NNE
NOSS 3-2 (C) 4.1 19:42:19 10° NW 19:49:34 80° SW 19:56:23 18° SSE
Cosmos 2333 Rocket 4.0 19:44:28 10° WSW 19:49:38 35° NW 19:54:49 10° NNE
Cosmos 1703 Rocket 4.2 19:49:48 10° NNW 19:54:02 53° W 19:58:12 10° S
Geosat 4.0 19:49:27 10° NNE 19:54:29 83° WNW 19:59:29 10° SW
USA 32 4.4 19:53:57 23° SE 19:56:41 42° E 20:01:35 10° NNE
BREEZE-M DEB (TANK) 2.1 19:54:22 10° W 19:56:55 87° N 19:59:32 23° E
Spot 2 Rocket 3.5 19:53:55 23° SSE 19:57:04 66° ENE 20:02:04 10° N
Lacrosse 5 rocket 0.5 19:56:24 10° SW 19:59:34 63° SE 20:00:41 35° ENE
NOSS 2-3 (D) 4.2 19:54:54 10° NW 19:59:54 82° SW 20:03:53 24° SE
CZ-2C R/B 4.1 20:00:39 17° NE 20:00:39 17° NE 20:02:13 10° NNE
ARIANE 6 FM1 Upper Stage 3.5 19:56:55 10° WSW 20:00:57 50° NW 20:04:53 10° NE
Cosmos 1809 Rocket 4.5 19:55:08 10° N 20:01:14 64° ENE 20:05:08 23° SSE
Cosmos 1378 Rocket 4.5 19:58:29 10° N 20:02:26 31° ENE 20:03:21 28° E
ERS-1 Rocket 3.5 19:57:52 10° S 20:02:47 58° W 20:07:44 10° NNW
Cosmos 1933 Rocket 3.7 20:00:45 10° SSW 20:05:06 74° W 20:09:31 10° N
Cosmos 1943 Rocket 2.2 20:04:34 10° NNW 20:10:15 71° ENE 20:12:59 32° SE
Cosmos 2218 Rocket 3.9 20:06:05 14° S 20:11:25 66° E 20:17:30 10° NNE
YAOGAN 11 3.9 20:07:24 10° NNE 20:11:38 66° ESE 20:13:55 26° S
Meteor 1-11 4.4 20:08:56 10° N 20:14:24 53° ENE 20:16:34 34° SE
In-Cosmos 22 Rocket 4.2 20:10:00 10° NNW 20:15:21 73° W 20:19:03 20° S
Meteor 2-15 4.4 20:11:09 19° S 20:15:32 62° E 20:21:32 10° NNE
USA 59 Rocket 1.2 20:13:58 10° NNW 20:16:33 22° NE 20:17:17 21° NE
MOS 1-B 4.3 20:14:21 24° SSE 20:18:02 86° WSW 20:23:52 10° NNW
Cosmos 1733 Rocket 3.3 20:18:21 43° ESE 20:18:52 45° E 20:23:03 10° NNE
Cosmos 192 4.5 20:18:37 35° SSE 20:20:10 49° ESE 20:24:55 10° NNE
Cosmos 1959 Rocket 4.4 20:15:53 15° S 20:21:16 74° E 20:27:35 10° NNE
SeaSat 1 3.8 20:19:54 21° ENE 20:21:41 27° NE 20:25:44 10° N
CZ-4B R/B 3.6 20:20:21 39° ESE 20:21:49 53° ENE 20:26:30 10° N
NOSS 3-4 (A) 4.0 20:23:13 29° E 20:23:13 29° E 20:27:01 10° NE
NOSS 3-4 (C) 4.0 20:23:46 29° E 20:23:46 29° E 20:27:32 10° NE
Okean-O 2.6 20:20:35 33° S 20:22:32 78° WSW 20:26:57 10° NNW
IRS-1C Rocket 4.4 20:20:58 36° ESE 20:22:41 49° ENE 20:27:45 10° N
Cosmos 494 Rocket 4.4 20:18:34 10° NNW 20:23:39 60° WSW 20:26:29 26° S
ATLAS 3B R/B 4.3 20:18:21 10° W 20:25:39 41° NNW 20:33:02 10° NE
Cosmos 1821 Rocket 4.0 20:22:24 26° SSE 20:25:54 62° E 20:32:07 10° NNE
Cosmos 1048 Rocket 3.9 20:23:01 10° NNW 20:28:10 79° ENE 20:29:52 43° SE
Cosmos 2360 Rocket 4.2 20:23:43 10° WSW 20:28:35 29° NW 20:33:30 10° NNE
Timation 2 Rocket 4.0 20:27:25 10° NNW 20:33:42 78° ENE 20:36:19 39° SE
Cosmos 1869 Rocket 4.3 20:30:53 10° SSW 20:35:08 51° WNW 20:39:27 10° N
Cosmos 2322 Rocket 4.5 20:32:10 10° W 20:36:44 25° NW 20:41:20 10° NNE
Terra 3.4 20:34:16 11° SSW 20:38:13 31° W 20:42:23 10° NNW
Aureole 3 3.5 20:35:05 10° N 20:39:11 78° E 20:40:03 57° SSE
CZ-4 R/B 4.1 20:38:18 10° WSW 20:39:53 12° W 20:41:29 10° WNW
Meteor 2-21 4.4 20:33:57 10° N 20:40:06 88° ENE 20:42:49 36° S
NOSS 2-1 (D) 4.3 20:39:45 10° NNW 20:42:32 30° NE 20:42:32 30° NE
Cosmos 2242 Rocket 3.6 20:40:55 10° NNW 20:45:28 80° W 20:46:21 56° S
Okean O Rocket 2.5 20:43:57 28° SSW 20:45:47 43° W 20:49:58 10° NNW
SL-08 R/B 4.4 20:42:38 10° N 20:47:17 45° WNW 20:51:57 10° SW
Cosmos 2237 Rocket 2.3 20:47:31 50° SE 20:48:08 52° ESE 20:53:40 10° NE
Cosmos 1980 3.7 20:47:57 49° SSE 20:48:58 57° ESE 20:54:30 10° NE
Cosmos 1025 Rocket 3.3 20:45:32 10° N 20:49:24 50° ENE 20:49:24 50° ENE
Cosmos 1125 Rocket 3.9 20:51:20 42° E 20:51:20 42° E 20:55:41 10° NE
CZ-4B R/B 2.8 20:51:35 67° W 20:51:35 67° W 20:55:00 10° NNW
ASTEX 1 3.4 20:50:47 48° S 20:52:09 78° W 20:57:05 10° N
Cosmos 2322 4.1 20:46:33 10° SW 20:52:13 64° WNW 20:57:57 10° NNE
Cosmos 2292 Rocket 3.9 20:47:43 10° N 20:53:32 64° ENE 20:54:03 59° ESE
Cosmos 1400 Rocket 3.7 21:03:02 38° NNE 21:03:02 38° NNE 21:05:23 10° NNE
IRS-P2 Rocket 4.5 21:02:29 63° SE 21:03:21 80° ENE 21:08:38 10° NNW
SPOT 3 Rocket 3.7 21:02:10 48° SSW 21:03:29 68° WSW 21:08:41 10° NNW
Cosmos 2219 Rocket 4.4 21:00:31 10° W 21:05:07 26° NW 21:09:46 10° NNE
SL-08 R/B 4.4 21:11:04 58° SE 21:11:57 65° E 21:18:00 10° NNE
Meteor 2-21 Rocket 4.5 21:07:01 10° NNW 21:13:08 77° W 21:14:50 49° S
USA 234 4.1 21:10:55 10° ENE 21:17:09 49° N 21:23:23 10° W
Cosmos 2369 Rocket 3.1 21:15:01 10° NNW 21:20:08 35° NE 21:20:57 33° ENE
Cosmos 1674 Rocket 3.8 21:15:58 10° NNW 21:19:57 64° WNW 21:19:57 64° WNW
Cosmos 1908 Rocket 4.5 21:22:14 39° NE 21:22:14 39° NE 21:25:09 10° NNE
COSMOS 2428 3.7 21:16:40 10° SW 21:22:10 46° NW 21:27:42 10° NNE
Helios 1B rocket 4.1 21:23:49 22° NNE 21:23:49 22° NNE 21:25:23 10° N
NOSS 0 Rocket 4.2 21:18:51 10° SW 21:25:03 66° NW 21:31:17 10° NNE
Cosmos 1727 Rocket 4.4 21:20:16 10° NNW 21:26:31 59° W 21:28:33 41° SSW
Ariane Rocket 3.4 21:26:52 49° SW 21:27:28 52° W 21:32:23 10° NNW
Cosmos 2278 Rocket 3.0 21:23:21 10° NW 21:28:36 40° WSW 21:29:39 36° SW
USA 238 DEB 4.1 21:22:57 10° NW 21:30:16 66° SW 21:32:16 50° S
USA 238 4.1 21:23:07 10° NW 21:30:27 66° SW 21:32:26 51° S
Cosmos 2221 Rocket 4.0 21:26:31 10° N 21:30:11 61° NNW 21:30:11 61° NNW
Cosmos 1346 Rocket 4.2 21:29:21 10° NNW 21:31:34 34° NNW 21:31:34 34° NNW
Lacrosse 5 rocket 3.7 21:33:34 10° W 21:34:04 13° WNW 21:34:04 13° WNW
Cosmos 1656 Rocket 3.6 21:45:09 10° NNW 21:50:17 77° WNW 21:50:17 77° WNW
Cosmos 1943 Rocket 3.9 21:49:13 10° NW 21:53:25 22° W 21:54:29 21° WSW
SL-16 R/B 3.1 21:58:05 36° ENE 21:58:05 36° ENE 22:01:39 10° NE
SJ 16-02 4.0 21:55:41 10° NNE 21:56:36 11° NE 21:56:47 11° NE
SeaSat 1 2.9 21:59:30 55° WNW 21:59:30 55° WNW 22:03:36 10° NW
Cosmos 2123 Rocket 4.3 21:56:59 10° NNW 22:03:04 56° W 22:03:50 53° WSW
Cosmos 1934 Rocket 4.1 22:03:44 63° WSW 22:04:32 70° WNW 22:10:48 10° N
USA 59 Rocket 2.1 22:01:54 10° NW 22:02:49 17° WNW 22:02:49 17° WNW
Cosmos 1140 Rocket 4.3 22:04:27 10° NNW 22:08:44 44° NE 22:08:44 44° NE
Cosmos 2346 Rocket 4.4 22:04:03 10° N 22:09:59 77° NE 22:09:59 77° NE
NOSS 3-4 (A) 3.8 22:10:29 35° W 22:12:31 55° NW 22:18:24 10° NE
NOSS 3-4 (C) 3.8 22:11:02 36° W 22:13:00 55° NW 22:18:55 10° NE
Cosmos 2285 Rocket 3.9 22:19:16 82° NE 22:19:16 82° NE 22:25:22 10° NNE
Cosmos 1535 Rocket 4.5 22:26:51 75° WNW 22:26:51 75° WNW 22:32:51 10° N
NOSS 3-1 (C) 4.0 22:20:35 10° NW 22:27:23 73° NE 22:28:43 61° E
ALOS 2 4.1 22:29:40 33° N 22:29:40 33° N 22:32:17 10° N
ATLAS 5 CENTAUR R/B 4.0 22:26:34 10° NNW 22:28:47 15° NNE 22:29:34 14° NE
Cosmos 2237 Rocket 3.7 22:29:12 19° W 22:32:27 33° NW 22:37:36 10° NNE
Cosmos 1605 Rocket 4.0 22:32:45 72° WNW 22:32:45 72° WNW 22:38:40 10° N
ARIANE 5 R/B 4.2 22:40:11 33° NNW 22:40:11 33° NNW 22:42:37 10° NNW
Cosmos 2297 4.0 22:32:41 10° NNW 22:37:29 62° NW 22:37:29 62° NW
COSMOS 2455 3.7 22:38:56 10° NNW 22:44:40 42° NE 22:45:16 41° ENE
Cosmos 2173 Rocket 4.3 22:55:45 55° NE 22:55:45 55° NE 23:00:47 10° NNE
Cosmos 2100 Rocket 4.2 23:00:25 61° NE 23:00:25 61° NE 23:05:39 10° NNE
USA 234 4.0 22:53:18 10° E 22:59:32 49° N 23:05:47 10° WNW
Cosmos 2369 Rocket 3.2 22:58:57 10° NW 23:02:43 37° WNW 23:02:43 37° WNW
NOSS 3-1 (A) 4.0 23:11:40 10° NW 23:18:32 72° NE 23:19:58 60° E
Cosmos 1943 3.8 23:21:35 51° NNE 23:21:35 51° NNE 23:25:48 10° NNE
SJ 16-02 3.3 23:31:20 10° NNW 23:33:17 26° N 23:33:17 26° N
SL-16 R/B 3.4 23:39:53 33° WNW 23:40:30 34° NW 23:45:38 10° NNE
ACS3 Solar Sail 3.3 23:35:48 10° NE 23:40:25 24° E 23:40:25 24° E
Cosmos 1802 Rocket 4.1 23:43:35 74° NNW 23:43:35 74° NNW 23:49:21 10° N
CZ-2C R/B 3.2 23:44:18 57° NNW 23:44:18 57° NNW 23:48:39 10° NNW
Meteor 2-3 Rocket 4.5 23:41:42 10° NNW 23:45:50 46° NW 23:45:50 46° NW
Cosmos 1725 Rocket 4.1 23:48:08 74° N 23:48:08 74° N 23:53:53 10° N
Cosmos 1818 4.5 23:46:07 10° NNW 23:51:20 43° NE 23:51:37 43° NE
